COSMOS 2251 DEB, 36540

Orbit data source: Space-Track

COSMOS 2251 DEB, 36540 is space debris in LEO originally from a launch on Wed, 16 Jun 1993 UTC launched from the Plesetsk Missile And Space Complex (PKMTR). The debris from Iridium 33, an American commercial communications satellite, has been tracked extensively since its accidental collision with the defunct Russian satellite Cosmos 2251 in 2009. This event, occurring at high speed in low Earth orbit (LEO), generated thousands of pieces of space debris, significantly increasing the risk of further collisions. The Iridium 33 debris cloud has impacted space traffic management and orbital debris mitigation strategies, making it a subject of ongoing study in space situational awareness.

Loading next visibility...
Identifier
36540, 1993-036BDA
Orbit
LEO
Country
Flag of CISCIS
Related business
Manufacturer
Unknown
Mission
Spacecraft
Bus & Motor
Unknown
Mass
Unknown
Launch date (UTC)
1993-06-16 (33 years ago)
Launch vehicle
Unknown
Launch site
Plesetsk Missile And Space Complex (PKMTR)
Object type
Payload
Rocket body
Debris
Shape & HBR
Unknown shape, 0.1 m
Radar Cross Section
Small (<0.1 m²)

Expand to show TLE details & history
Last TLE update: 1 day ago

TLE from 1 day ago
0 COSMOS 2251 DEB
1 36540U 93036BDA 26256.73767056  .00002554  00000-0  52685-3 0  9996
2 36540  74.0299  15.5860 0014833  16.1805 343.9831 14.60906267900232
Epoch: 2026-09-13T17:42Z
TLE epoch observation values (Epoch: 2026-09-13T17:42:14.736Z)
Latitude
-0.00007°
Longitude
117.29656°
Altitude
682.812 km
Speed
7.521 km/s
True Right ascension
01h 02m 20s
True Declination
0° 00' 00"
Sunlit
Object was in full shadow at epoch
Visualization orbit readout
Latitude
Unknown
Longitude
Unknown
Altitude
Unknown
Speed
Unknown
Apparent Right ascension
Unknown
Apparent Declination
Unknown
Sunlit
N/A
Visualization observer readout
Local Sidereal Time
17:31:56
Azimuth
Unknown
Elevation
Unknown
Doppler factor
Unknown
Orbital elements
Apogee altitude
698.327 km
Perigee altitude
677.365 km
Semi-major axis
7,065.983 km
Eccentricity
0.00148
Inclination
74.0299°
RAAN
15.586°
Arg. of periapsis
16.1805°
True anomaly
343.93612°
Mean anomaly
343.9831°
Eccentric anomaly
343.95962°
Mean motion
3.65413 °/min
Orbital period
98.52 mins
BSTAR
0.00052685
Loading maneuver chart data...
Computing Atmospheric mass density...

Documentation

Showing up to 5 results
|